User: anonymous   Login
Location: Oshawa
(43.9000°N, 78.8670°W)
Time: 20:05:27
(UTC-04:00)
Language:

Iridium 46 - Orbit

View from above orbital plane
View from above orbital plane
View from above satellite
View from above satellite

Ground track
Ground track

The orbit data is extracted from the following two-line orbital elements,

1 24905U 97043C   15188.49158775  .00000063  00000-0  15482-4 0  9995
2 24905 086.3972 192.9967 0002347 091.4151 268.7314 14.34216832935964
Epoch (UTC): 07 July 2015 11:47:53
Eccentricity: 0.0002347
inclination: 86.3972°
perigee height: 776 km
apogee height: 779 km
right ascension of ascending node: 192.9967°
argument of perigee: 91.4151°
revolutions per day: 14.34216832
mean anomaly at epoch: 268.7314°
orbit number at epoch: 93596

The dashed part of the orbit path shows where the satellite is in the earth's shadow,  

DLR